Theta_e
333 337 336 336 338 342 342 343 340 341 343 347 343 342 343 343 343 342 341 341 339 338 340 339 339 341 337 333 330 326 324 325 318 320 330 335 331 327 321 324 326 325 324
325 327 336 335 337 339 338 342 344 337 338 340 340 343 343 343 340 339 338 337 337 336 335 335 336 338 337 334 333 325 325 326 322 322 327 328 328 330 327 325 326 327 321
322 322 325 335 334 334 335 337 341 342 335 334 334 334 337 338 336 337 336 335 336 335 335 335 334 335 334 330 330 327 328 328 330 325 324 325 325 327 324 325 326 327 329
319 320 323 325 332 334 333 333 332 335 340 334 332 335 336 337 338 337 337 335 336 335 335 335 336 336 333 332 331 330 331 328 328 327 323 321 323 325 325 323 323 327 325
317 318 321 326 325 332 331 329 331 333 332 338 338 337 334 336 337 331 337 336 336 334 334 334 335 334 331 331 332 332 328 330 327 325 323 322 319 321 320 321 320 325 328
314 315 319 322 323 327 328 329 328 330 331 331 331 336 336 335 319 316 320 336 336 334 333 334 334 329 329 320 319 322 328 330 325 325 323 322 321 321 325 322 323 320 319
314 314 315 318 319 320 327 325 327 329 331 330 330 330 331 336 318 313 312 326 331 333 334 334 334 333 328 334 321 316 317 315 321 327 326 326 326 329 327 325 324 322 321
312 313 314 315 317 319 320 322 326 329 330 328 328 330 330 330 312 309 308 326 328 330 331 333 334 334 333 332 331 328 325 324 321 323 328 327 331 332 331 329 327 325 324
310 312 313 314 315 318 319 324 321 324 325 325 323 324 324 329 306 304 307 329 330 329 331 332 334 333 321 309 329 326 325 324 317 313 314 317 315 317 323 324 321 318 317
309 310 313 314 315 315 317 321 326 319 322 322 321 323 320 324 302 301 311 323 325 328 330 331 317 324 314 307 323 327 323 323 324 323 316 312 312 314 314 325 323 319 318
310 311 312 313 315 316 316 318 321 322 320 322 321 324 324 323 316 301 301 317 317 317 318 327 331 309 306 305 306 328 324 325 323 324 320 320 320 317 318 320 322 319 317
310 310 310 311 312 312 313 316 318 319 318 318 319 319 321 323 310 301 299 300 304 310 313 317 323 305 303 303 304 307 306 310 324 323 320 319 317 318 317 316 317 319 321
311 309 312 312 312 313 312 311 313 316 317 316 315 315 315 322 316 304 302 300 302 308 314 311 302 300 302 304 302 302 302 315 321 321 320 319 320 320 320 318 319 319 319
311 311 312 312 311 313 312 311 311 313 313 315 313 314 314 319 317 311 308 307 305 308 309 311 310 306 303 313 313 306 310 315 317 317 319 322 320 319 318 320 318 318 316
311 311 312 312 312 311 312 312 312 314 311 311 312 311 315 315 304 298 298 304 305 303 299 308 313 314 316 317 316 319 315 317 315 318 318 319 319 318 318 319 317 315 311
310 309 310 310 311 312 311 311 301 300 299 298 298 298 310 297 294 293 294 294 293 293 304 308 310 312 312 314 317 315 316 314 318 319 316 314 312 313 311 310 311 311 310
309 309 308 308 309 310 310 310 308 302 298 297 296 294 295 293 294 294 294 293 296 298 308 308 308 308 308 310 312 312 311 312 313 312 313 312 311 312 308 309 309 309 308
309 302 308 309 310 310 311 311 310 308 302 304 298 296 295 294 294 294 294 295 309 306 309 307 307 308 307 305 305 305 306 306 307 308 306 306 307 306 305 305 306 306 304
308 307 309 309 309 309 310 310 310 310 308 305 308 297 296 294 294 296 297 308 306 304 304 306 307 309 308 308 307 305 304 304 304 304 304 304 304 304 303 304 302 296 298
307 302 301 307 307 308 309 309 308 308 309 306 307 307 306 300 305 306 307 307 306 305 305 306 306 307 307 308 307 307 305 305 306 306 305 304 305 304 303 303 303 302 301
304 304 295 303 305 306 307 307 307 308 306 306 307 297 287 305 305 304 304 304 303 303 304 305 305 305 306 306 306 306 305 306 306 306 306 306 306 304 305 304 304 304 303
299 300 302 302 303 305 306 308 305 305 305 305 301 297 291 303 303 303 303 303 304 304 304 303 303 304 304 304 304 304 304 303 304 304 304 303 304 304 304 303 303 302 302
299 300 300 301 304 300 305 305 303 303 301 300 299 298 297 298 298 300 301 302 303 304 304 303 303 303 303 304 304 305 303 302 302 302 302 302 301 300 300 299 300 300 300
301 301 301 302 303 304 305 301 297 293 296 296 296 297 297 297 298 298 300 301 301 302 302 302 303 300 301 303 302 299 298 298 299 297 299 300 298 297 299 299 299 300 299
300 301 300 299 299 297 296 296 295 295 295 295 295 296 297 298 298 299 300 301 300 300 301 301 302 300 299 298 298 296 287 286 296 292 297 297 297 299 299 300 300 300 300
296 297 296 296 296 295 294 294 294 294 294 295 296 297 297 298 299 299 300 301 301 300 300 300 300 299 298 297 294 287 286 286 292 287 297 300 298 297 297 296 297 296 296
Wind_Speed
7 5 7 7 8 7 6 3 4 5 6 3 4 3 4 7 7 7 8 7 9 9 6 5 6 5 4 4 4 2 2 2 3 4 4 4 4 7 5 4 5 6 3
8 8 5 6 6 6 7 6 3 4 5 6 5 8 8 7 6 6 5 8 9 9 9 9 7 7 6 5 3 4 4 3 3 2 4 2 3 4 4 3 3 3 6
7 8 8 4 5 6 7 7 7 3 1 3 4 6 5 4 6 7 9 10 10 9 9 10 8 6 5 5 4 3 3 1 1 2 2 2 3 3 2 3 4 4 4
9 9 7 9 6 2 4 6 7 9 1 3 5 5 6 10 10 9 11 8 7 7 8 8 6 7 9 6 4 5 3 4 4 3 3 2 3 4 4 4 3 4 5
9 9 8 7 8 3 3 5 5 5 6 5 3 6 5 5 6 5 8 6 5 6 8 8 8 9 8 6 5 5 6 4 3 4 3 2 3 3 5 4 4 3 4
12 11 10 9 9 8 3 3 5 4 4 6 7 3 4 4 6 8 6 5 6 7 7 8 8 7 6 8 8 10 9 7 6 3 5 4 4 6 6 5 5 2 2
11 13 12 11 10 9 5 4 3 3 6 5 4 6 4 4 6 8 10 6 7 7 6 6 7 8 10 10 12 12 12 10 8 8 5 4 1 4 6 4 4 3 2
11 11 12 13 12 10 6 9 5 2 3 5 6 5 5 3 6 10 9 6 7 10 13 13 12 12 13 11 11 10 10 8 7 5 6 3 5 5 5 4 4 3 1
13 12 11 13 14 12 9 2 3 7 5 5 8 6 4 4 10 7 6 6 8 10 10 11 12 12 12 11 10 10 10 11 9 10 8 7 8 7 6 5 3 2 3
14 15 15 12 12 13 12 10 4 6 11 6 9 5 7 6 9 10 4 3 6 7 9 11 12 13 12 12 10 11 12 12 9 7 3 3 8 8 11 4 7 4 3
12 13 14 14 13 10 12 11 9 6 8 8 8 7 8 9 4 7 8 6 6 6 6 8 9 13 14 14 14 12 12 10 11 12 11 12 11 7 7 6 4 5 1
12 11 11 14 12 11 14 11 10 9 9 11 9 9 9 8 9 9 7 4 3 6 8 5 9 11 13 16 11 13 14 11 6 7 10 12 11 12 11 11 8 6 3
11 10 11 13 13 11 11 12 10 10 9 10 10 9 9 4 7 10 8 8 8 6 7 8 13 14 15 11 12 9 8 5 7 7 9 12 13 11 7 9 8 8 5
12 12 11 11 12 11 9 9 8 8 9 11 12 11 7 4 5 5 4 4 5 6 7 8 9 11 11 7 5 5 4 4 5 6 9 8 5 9 10 8 5 7 5
10 10 10 8 10 9 8 8 8 8 6 6 8 9 4 3 5 2 2 4 4 5 6 5 4 3 6 4 3 4 5 5 6 6 5 10 10 10 7 7 6 8 6
9 8 8 8 9 7 8 9 4 4 6 3 4 6 1 6 4 5 7 8 7 6 2 4 4 4 6 8 5 5 5 6 5 4 2 3 3 5 5 3 4 6 7
7 9 9 9 8 8 8 8 8 3 5 6 7 9 9 4 6 7 7 8 8 4 2 4 4 4 4 6 4 2 2 1 3 4 4 4 5 5 7 6 7 6 6
11 10 7 7 8 8 8 8 7 6 6 4 6 11 12 8 7 7 8 8 3 4 2 3 2 3 3 3 3 4 3 2 1 2 3 3 4 5 4 6 6 6 5
11 9 9 8 9 8 8 8 7 6 7 7 6 5 9 10 9 8 8 3 4 3 4 3 3 2 2 2 3 6 4 4 1 3 3 4 4 4 4 4 4 5 6
11 11 8 8 9 10 7 7 7 6 8 7 8 3 6 5 5 3 3 3 3 4 4 3 3 4 4 4 3 7 4 5 4 2 3 3 3 4 4 5 5 5 3
10 10 10 9 9 9 4 5 5 6 7 7 3 4 3 5 4 4 4 4 3 3 4 4 5 4 3 4 5 9 5 2 4 4 4 3 3 3 3 3 3 4 4
9 8 9 8 9 8 6 3 4 4 3 5 6 5 9 4 4 3 3 4 5 5 3 3 3 3 4 6 6 5 6 4 6 4 4 4 4 4 3 3 4 3 4
9 9 7 7 8 5 4 4 5 5 7 8 7 6 4 5 4 5 5 4 4 4 3 3 3 5 4 6 5 6 3 5 6 4 3 3 3 3 3 3 3 3 3
7 5 2 5 4 5 7 8 8 7 7 8 7 6 5 5 5 5 4 4 3 4 3 4 6 9 7 6 6 7 6 4 6 3 3 3 3 3 3 3 2 4 3
10 9 10 10 10 9 8 9 9 7 8 7 6 5 5 4 4 4 4 3 4 4 4 4 6 8 9 9 7 6 2 5 7 3 3 4 4 4 3 2 2 2 3
10 10 9 9 9 9 9 9 8 7 7 6 5 5 4 4 5 5 5 5 1 3 7 7 9 12 11 8 7 6 4 2 3 3 3 3 3 3 3 3 4 3 4
Wind_Direction
29 47 48 12 7 7 12 347 337 337 310 220 218 215 210 206 198 200 220 253 224 238 257 239 236 237 238 252 246 184 265 248 233 314 100 110 95 120 147 157 166 211 162
4 0 37 24 358 5 355 359 9 342 345 295 287 233 221 200 200 209 219 248 240 236 238 245 229 215 222 242 271 201 208 251 198 219 139 134 129 169 160 167 192 273 153
358 346 336 351 8 356 355 348 352 15 320 301 302 299 318 260 213 201 222 235 238 246 238 236 222 220 221 218 221 269 194 221 288 156 194 158 137 143 154 191 216 239 245
339 333 328 320 317 342 5 343 354 348 40 183 255 279 270 260 260 248 226 223 232 236 238 247 233 227 211 207 203 221 254 215 188 219 244 173 147 155 169 191 197 207 234
333 319 308 300 305 313 7 331 333 337 343 336 218 234 261 275 262 314 250 237 220 243 242 235 239 249 241 215 193 222 201 223 186 195 242 209 157 147 188 204 218 182 212
322 306 303 300 295 284 235 267 303 334 340 333 330 312 291 268 256 273 320 273 232 239 231 230 242 248 254 230 235 228 215 190 202 193 215 212 220 191 177 195 184 167 207
309 308 302 303 292 293 259 272 298 344 311 318 311 319 325 305 280 251 227 253 282 269 279 280 263 243 219 236 230 231 231 231 193 198 225 200 145 236 173 168 151 142 171
296 301 305 300 296 288 280 237 251 222 293 303 288 271 287 292 305 241 236 237 234 247 252 257 255 248 248 227 228 226 233 235 221 208 208 220 182 224 161 153 121 113 40
307 296 295 302 305 311 290 317 20 314 310 307 307 305 309 282 42 331 287 256 249 259 255 254 250 249 248 225 209 220 227 232 213 210 225 225 164 213 168 107 110 136 232
303 312 315 304 296 304 311 305 202 229 259 270 284 308 299 299 119 119 138 293 297 288 270 256 243 247 229 211 215 221 224 226 218 233 203 208 169 183 145 202 162 189 223
305 309 307 308 312 290 291 287 287 262 276 277 276 274 276 257 138 85 61 15 318 311 293 301 260 229 230 232 213 226 229 241 233 219 220 217 206 173 163 157 218 133 179
277 285 292 300 301 297 311 302 289 276 259 266 265 271 262 255 156 122 106 99 326 282 279 288 296 328 248 225 214 228 221 220 224 221 218 211 205 189 181 170 183 154 123
284 284 275 281 285 286 284 290 296 294 261 251 256 249 250 206 132 107 82 19 319 303 296 296 299 298 281 264 228 216 217 225 233 235 224 221 214 204 175 167 155 128 134
285 297 290 281 279 278 273 274 274 275 275 263 256 257 233 131 70 49 23 336 324 323 330 319 298 275 281 253 184 188 206 213 212 239 250 241 195 165 172 166 154 135 159
299 296 294 286 285 286 277 273 271 266 275 271 290 309 9 37 92 103 283 315 314 293 300 278 284 286 277 216 216 199 178 191 213 230 268 222 194 177 171 163 145 142 153
292 296 307 308 300 289 284 287 239 55 34 356 287 300 304 79 60 320 294 276 271 292 275 296 298 288 284 276 228 195 196 207 210 200 159 86 80 116 118 105 118 165 177
325 316 308 293 287 292 298 293 287 176 173 216 234 268 263 306 298 295 299 296 290 297 287 333 316 322 315 302 284 169 185 138 158 158 160 153 148 155 151 173 180 179 191
297 268 282 310 309 300 292 294 279 231 234 248 238 228 253 259 269 287 301 298 14 29 358 329 341 342 344 311 291 80 44 51 115 137 122 133 152 156 163 171 172 167 146
323 319 319 301 291 280 286 290 295 293 243 227 214 191 222 232 245 270 293 352 25 23 355 356 6 323 43 334 311 72 56 63 328 108 104 110 112 117 109 113 115 122 116
315 304 290 301 300 295 299 293 295 313 299 229 233 226 167 181 198 150 70 39 38 47 359 12 38 0 9 328 261 78 61 59 242 115 135 121 143 133 140 141 149 151 153
312 313 309 293 286 295 306 298 328 336 326 278 100 63 48 90 78 67 95 80 61 39 16 7 42 357 12 342 23 72 37 338 38 51 63 102 108 98 98 106 116 133 151
292 281 284 295 298 288 302 335 7 350 6 67 74 50 29 54 80 83 62 66 70 64 31 29 44 24 18 27 12 41 90 53 47 43 50 50 60 55 85 104 104 111 120
282 271 266 264 268 279 287 66 61 14 77 74 75 70 52 54 55 51 55 55 54 44 32 27 2 67 18 33 13 22 26 70 66 23 57 73 84 88 81 93 105 115 124
308 318 254 270 318 58 71 78 69 55 62 65 66 67 63 49 45 44 38 40 54 42 29 60 55 56 34 41 40 35 7 21 75 41 30 89 111 106 122 132 155 148 154
17 29 49 56 65 66 68 66 64 55 64 62 65 53 47 30 40 42 32 39 48 60 54 66 60 60 59 61 70 84 36 8 84 140 97 67 57 70 64 140 149 174 146
30 41 46 57 64 65 67 66 63 62 63 51 39 43 29 25 60 52 35 14 4 76 65 53 59 58 58 43 38 33 18 28 86 63 66 139 122 104 95 100 90 84 88